星链-32204 (STARLINK-32204)

导读 | 豆包AI

STARLINK-32204是美国SpaceX公司于2024年8月20日发射的星链(Starlink)星座卫星,属于第二代星链组网卫星,运行在近地轨道(LEO)。它依托星链星座,为全球尤其是基础设施匮乏地区提供高速低延迟宽带互联网服务,支持手机直连、远程通信等应用,是SpaceX推进全球卫星互联网覆盖的重要组成部分,助力星座向“星链移动”服务升级拓展。

Basic Information
目录编号:
60584
目录名称:
STARLINK-32204
国际标识:
2024-150B
轨道中心:
EARTH
卫星名称:
星链-32204 (STARLINK-32204)
卫星全名:
星链-32204 (STARLINK-32204)
卫星状态:
在轨 (已飞行572 天)
发射日期:
2024-08-20 UTC
国别 :
美国 (US)
星等 :
--
Orbit Information
数据来源 国际轨道数据 AOE轨道数据
星历时间 2026-03-15T04:42:29+0800
23小时前
查看轨道信息
2026-03-12T15:00:00+0800
3天前
查看轨道信息
半长轴 6853.348km 6853.381km
偏心率 0.0001118 0.0001061
轨道倾角 53.160° 53.157°
近地点辐角 75.159° 82.400°
升交点赤经 282.979° 294.925°
平近点角 284.954° 145.973°
近地点 474.444km 474.516km
远地点 475.978km 475.972km
周期 94.105分钟 94.106分钟
每日圈数 15.302016 15.301906
Detailed Information
卫星平台:
Starlink v2.0 mini
运营商:
太空探索技术公司
运营商所在国:
美国
制造商(研发单位):
太空探索技术公司
制造商所在国:
美国
使用方式:
暂无
Satellite Introduction
星链(Starlink)计划是由太空探索技术公司(SpaceX)提出的一个巨型低轨卫星互联网星座项目,计划在2019年至2024年间在太空搭建由约1.2万颗卫星组成的“星链”网络,其中1584颗将部署在地球上空550千米处的近地轨道,并从2020年开始工作。该卫星仍在工作。
2D Orbit Map
3D Orbit Map
Orbit Altitude Analysis Chart
Orbit Inclination Analysis Chart
Orbit Comprehensive Analysis Chart
View Comprehensive Chart